Cloud_Cover
90 100 100 100 100 54 25 56 10 100 100 100 99 66 100 89 5 5 3 0 0 0 2 100 100 100 100 100 100 100 100 100 100 100 100 100 71 24 74 100 100 100 100 100
96 96 100 100 100 100 100 100 70 100 97 66 88 98 99 92 76 100 5 0 0 0 0 5 100 100 100 100 100 100 100 100 100 100 100 100 100 68 100 100 100 100 100 100
100 39 51 100 100 100 100 100 100 99 78 100 100 79 100 100 100 82 63 18 0 0 0 0 36 100 100 100 100 100 100 100 100 100 100 100 100 100 100 100 100 100 100 100
87 23 5 10 67 100 100 100 100 92 93 76 10 2 11 100 100 87 100 100 40 0 0 0 0 57 100 100 100 100 100 100 100 98 100 100 100 100 100 97 100 100 100 100
48 39 99 100 52 72 69 66 57 84 92 84 35 58 0 14 58 100 100 100 94 5 0 0 0 0 98 100 100 100 100 100 100 100 100 100 100 100 100 100 100 100 100 100
80 18 95 60 64 100 98 40 69 84 100 92 5 61 0 2 3 5 69 9 5 2 0 0 0 0 1 100 100 100 100 100 100 100 100 100 100 100 100 100 100 100 98 96
5 8 24 100 80 10 99 99 95 100 100 65 5 86 0 0 0 0 0 2 3 0 0 0 0 0 0 66 100 100 100 100 100 100 100 100 100 100 100 100 100 100 100 100
71 88 8 34 49 98 100 100 91 100 100 80 92 63 1 3 0 0 0 0 1 5 3 0 14 0 0 1 100 100 100 100 100 100 100 100 100 100 100 100 100 100 100 100
80 45 80 59 100 100 100 100 100 99 39 98 12 1 5 15 0 0 5 2 0 0 4 0 0 0 0 0 10 100 100 100 100 100 100 100 100 100 100 78 100 100 100 100
98 98 91 100 100 100 100 100 100 100 100 100 98 100 96 70 52 44 40 59 14 11 33 10 0 0 1 0 0 50 100 100 100 100 100 100 100 92 100 100 100 100 100 100
100 100 98 100 100 100 100 100 100 100 100 100 100 100 100 100 100 100 96 100 79 91 99 100 100 88 5 13 13 0 100 100 100 100 100 100 100 100 100 100 100 100 100 100
100 100 100 100 100 100 100 100 100 100 100 100 100 100 100 100 100 100 100 100 100 100 100 100 100 98 74 68 27 99 43 100 100 100 100 100 100 100 100 100 100 100 100 100
100 100 90 100 100 100 100 100 100 100 100 100 100 100 100 100 100 100 100 100 100 100 100 100 100 100 100 100 100 99 100 100 100 100 100 100 100 100 100 100 100 100 100 100
100 100 100 100 100 100 100 100 100 100 100 100 100 100 100 100 100 100 100 100 100 100 100 100 100 100 100 100 100 100 100 100 100 100 100 100 100 100 100 100 100 100 100 100
99 100 100 94 99 100 100 100 100 100 100 100 100 100 100 100 100 100 100 100 100 100 100 100 100 100 100 100 100 100 100 100 100 100 100 100 100 100 100 100 100 100 100 100
99 90 70 100 100 100 100 97 100 99 100 100 100 100 100 100 100 100 100 100 100 100 100 100 100 100 100 100 100 100 100 100 100 100 100 100 100 100 100 100 100 100 100 100
100 100 97 100 100 93 100 100 100 100 100 100 100 100 100 100 100 100 100 100 100 100 100 100 100 100 100 100 100 100 100 100 100 100 100 100 100 100 100 100 100 100 100 100
100 100 100 79 100 100 100 100 97 100 100 100 100 100 100 100 100 100 100 100 100 100 100 100 98 74 76 99 95 100 100 100 100 100 100 100 100 100 100 100 100 100 100 100
100 99 100 98 80 80 100 96 98 99 98 100 100 100 100 100 100 100 100 100 100 100 100 100 100 100 100 100 100 100 100 100 100 100 100 100 100 100 100 100 100 100 100 100
2 32 100 100 91 80 98 99 100 100 85 78 99 100 100 100 100 100 100 100 100 100 100 100 100 100 100 100 100 100 100 100 100 100 100 100 100 100 100 100 100 100 100 100
5 29 75 100 96 82 81 100 94 95 100 100 100 100 100 100 100 100 100 100 100 100 100 100 100 100 100 100 100 100 100 100 100 100 100 100 100 100 100 100 100 100 100 100
0 3 5 76 71 100 48 92 100 99 100 99 100 100 100 100 100 100 100 100 100 100 100 100 100 100 100 100 100 100 100 100 100 100 100 100 100 100 100 100 100 100 100 100
0 0 2 2 4 1 68 100 83 85 100 58 95 100 100 89 100 87 98 100 100 100 100 100 100 100 100 100 100 100 100 100 100 100 100 100 100 100 100 100 100 100 100 100
0 4 5 4 0 0 0 1 55 98 96 98 97 88 39 5 16 98 93 44 96 73 98 100 94 94 100 100 100 100 100 100 100 100 100 100 100 100 100 100 100 100 100 100
2 5 5 5 2 0 0 0 0 0 33 87 100 100 90 96 95 47 43 73 57 99 70 62 98 97 100 100 100 100 100 100 100 100 100 100 100 100 100 100 100 100 100 100
2 1 0 0 0 0 0 0 0 0 0 0 0 14 32 6 23 13 59 68 22 100 81 95 91 96 100 100 100 100 100 100 100 100 100 100 100 100 100 100 100 100 100 100